Regional Weather Roundup
Issued by NWS Sioux Falls, SD

Home | Current Version | Previous Version | Graphics & Text | Print | Product List | Glossary Off
Versions: 1 2 3 4 5 6 7 8 9 10 11 12 13 14 15 16 17 18 19 20 21 22 23 24 25 26 27 28 29 30 31 32 33 34 35 36 37 38 39 40 41 42 43 44 45 46 47 48 49 50

000
ASUS43 KFSD 231210
RWRFSD

WEATHER ROUNDUP FOR SE SOUTH DAKOTA/SW MINNESOTA/NW IOWA
NATIONAL WEATHER SERVICE SIOUX FALLS SD
700 AM CDT WED APR 23 2014

NOTE: "FAIR" INDICATES FEW OR NO CLOUDS BELOW 12,000 FEET WITH NO
SIGNIFICANT WEATHER AND OR OBSTRUCTIONS TO VISIBILITY.


SDZ038>040-050-052>070-231300-
SOUTHEAST SOUTH DAKOTA

CITY           SKY/WX    TMP DP  RH WIND       PRES   REMARKS
CHAMBERLAIN      N/A     53  34  48 SE30G43   29.61F
6HR MIN TEMP:  53; 6HR MAX TEMP:  59;

HURON          CLOUDY    52  34  50 SE23G38   29.73R
6HR MIN TEMP:  52; 6HR MAX TEMP:  58; 6HR PCP: TRACE;

MADISON        CLOUDY    46  39  76 SE25G35   29.83S
MITCHELL       MOCLDY    51  36  56 SE25G43   29.74F
6HR MIN TEMP:  51; 6HR MAX TEMP:  57; 6HR PCP:  0.01;

SIOUX FALLS    CLOUDY    49  37  63 SE26G36   29.85F
6HR MIN TEMP:  49; 6HR MAX TEMP:  55; 6HR PCP: TRACE;

WINNER         FAIR      56  32  40 SE22G30   29.56F
YANKTON        MOCLDY    52  34  50 E20G28    29.82F
$$

MNZ071-072-080-081-089-090-097-098-231300-
SOUTHWEST MINNESOTA

CITY           SKY/WX    TMP DP  RH WIND       PRES   REMARKS
FAIRMONT       CLOUDY    45  30  57 SE17      30.05S
JACKSON        CLOUDY    46  30  53 SE16      30.01R
LUVERNE        RAIN      48  37  66 SE24G30   29.90F
MARSHALL       CLOUDY    48  32  53 SE17      29.95F
6HR MIN TEMP:  46; 6HR MAX TEMP:  54;

MONTEVIDEO     DRIZZLE   43  37  81 S16       29.98F
PIPESTONE      LGT RAIN  46  37  71 SE21G28   29.89F
REDWOOD FALLS  CLOUDY    44  35  70 SE15      30.00F
TRACY          LGT RAIN  48  33  56 SE16G22   29.98R
WINDOM         CLOUDY    48  30  49 SE13      30.01R
WORTHINGTON    CLOUDY    46  30  53 E18       29.98F
$$

IAZ001>003-012>014-020>022-031-032-NEZ013-014-SDZ071-231300-
NORTHWEST IOWA

CITY           SKY/WX    TMP DP  RH WIND       PRES   REMARKS
CHEROKEE       CLOUDY    47  37  67 E14G21    29.95F
DENISON        CLOUDY    50  34  53 SE14G22   29.96F
ESTHERVILLE    CLOUDY    46  32  58 SE14      30.02R
LE MARS        CLOUDY    50  39  66 E10       29.92S
ORANGE CITY    LGT RAIN  50  37  62 SE15G24   29.93S
SHELDON        CLOUDY    46  39  76 E16       29.94F
SIOUX CITY     CLOUDY    50  37  61 SE21G29   29.88F
6HR MIN TEMP:  49; 6HR MAX TEMP:  56; 6HR PCP:  0.02;

SPENCER        CLOUDY    48  34  58 SE14      30.01R
6HR MIN TEMP:  47; 6HR MAX TEMP:  54; 6HR PCP: TRACE;

STORM LAKE     CLOUDY    48  34  57 SE18      29.98F
$$

ABBREVIATIONS USED IN REMARKS
   TC - TEMPERATURE IN CELSIUS
  WCI - WIND CHILL INDEX
   HX - HEAT INDEX
  VSB - VISIBILITY




USA.gov is the U.S. government's official web portal to all federal, state and local government web resources and services.